DELTA 1 DEB

Satellite information

Favourite Embed

Satellite Type and Status

DEBRISIN ORBIT

Key statistics

Satellite DELTA 1 DEB at a glance.

Uptime

18538

Days in orbit

Revolutions

≈ 14.6

Per day

Orbit

SSO

Sun Synchronous Orbit

Inclination

98.7

Latest

Satellite identification and parameters

Extended collection of information and parameters for DELTA 1 DEB.

Object identification

Identified? True

Debris? True

Object name: DELTA 1 DEB

International designator: 1975-004HN

Object number (NORAD): 19105

Object ID (CCSDS): 19105

Country: UNITED STATES OF AMERICA (US)

Current information (Y/N): Y

RCS size: SMALL

Orbital parameters

Period: 98.806 minutes

Inclination: 98.7372 deg

SMA: 7079.704 km

Apoapsis: 744.772 km

Periapsis: 658.366 km

RAAN: 211.98 deg

Eccentricy: 0.00610237

Argument of periapsis: 170.4942 deg

Mean anomaly: 221.396 deg

Mean motion: 14.57404529 rev/day

Mean motion (dot): 0.00000969 rev/day2

B* drag term: 0.00021977116 1/REarth

Two-line elements (TLE)

Creation date: Oct. 24, 2025, 2:48 a.m.

Reference frame: TEME

Reference center: EARTH

Epoch: Oct. 23, 2025, 5:03 p.m. UTC

TLE line 0: 0 DELTA 1 DEB

TLE line 1: 1 19105U 75004HN 25296.71094122 .00000969 00000-0 21977-3 0 9995

TLE line 2: 2 19105 98.7372 211.9800 0061024 170.4942 221.3960 14.57404529148642

Live tracking on map

Real-time ground track for satellite DELTA 1 DEB.

In-orbit conjunctions

A list of the most updated potential collisions computed for object DELTA 1 DEB.

Target Orbit TCA Probability of collision Miss distance Type
CZ-6A DEB LEO 2025-07-15 16:31:37 0.0001983283 34.0 (m) DEBRIS
CZ-6A DEB LEO 2024-11-28 19:42:45 0.0001775777 959.0 (m) DEBRIS

Associated space launch

Earth observation satellite

DELTA 1 DEB was lifted into orbit during the mission ‘Delta 2910 | Landsat 2’, on board a Delta 2910 space rocket.

The launch took place on Jan. 22, 1975, 5:55 p.m. from Space Launch Complex 2W.

For more information about the launch, click the button.

Launch to space Delta 2910 | Landsat 2
Delta 2910 | Landsat 2

Agency: N/A

Status: Launch Successful

Launch date: Jan. 22, 1975, 5:55 p.m. UTC

Rocket: Delta 2910

Launch pad: Space Launch Complex 2W

Location: Vandenberg SFB, CA, USA

...

Latest news about this satellite

There are no fresh news available about this satellite. Check back as we update our databases every day.


Newsletter sign-up

Weekly statistics, charts and insights to help you stay on top of the space industry.